User: anonymous   Login
Location: Gleizolles
(44.4833°N, 6.7667°E)
Time: 16:41:17
(UTC+00:00)
Language:

NOAA 19 - Orbit

View from above orbital plane
View from above orbital plane
View from above satellite
View from above satellite

Ground track
Ground track

The orbit data is extracted from the following two-line orbital elements,

1 33591U 09005A   22334.16249831  .00000136  00000-0  98416-4 0  9995
2 33591  99.1293  11.6367 0014814  83.5252 276.7605 14.12644121711843
Epoch (UTC): 30 November 2022 03:53:59
Eccentricity: 0.0014814
inclination: 99.1293°
perigee height: 839 km
apogee height: 861 km
right ascension of ascending node: 11.6367°
argument of perigee: 83.5252°
revolutions per day: 14.12644121
mean anomaly at epoch: 276.7605°
orbit number at epoch: 71184

The dashed part of the orbit path shows where the satellite is in the earth's shadow,  

DLR